Location: Newark
(48.0000°N, 67.0000°E)
Time: 00:50:11
(UTC+00:00)

Vanguard 2 - Pass Details

Date: 25 February 2020
Orbit: 553 x 2938 km, 32.9° (Epoch: 28 March)

Event Time Altitude Azimuth Distance (km) Brightness Sun altitude
Exits shadow 23:44:30 32° 218° (SW) 3,045 10.1 -26.6°
Maximum altitude 23:48:45 40° 181° (S) 3,022 10.3 -25.9°
Drops below altitude 10° 00:03:11 10° 121° (ESE) 5,609 12.5 -23.6°
Sets 00:08:17 0° 115° (ESE) 6,752 13.2 -22.8°
